CZ-4B R/B

Last updated on Sun Aug 09 2026 00:02:10 GMT+0000 (Coordinated Universal Time)

1 29507U 06046C 26220.59290286 .00002408 00000+0 11960-3 0 9995 2 29507 97.5422 265.0392 0034067 100.1334 260.3746 15.18162783 83082
UTC large
Height (km)
Speed (km/s)
/
Latitude / Longitude
Inclination (degrees)
Orbital Period (minutes)
Azimuth
Elevation
Range (km)
Doppler Factor

Next 0 passes for location: London (51.5072 / 0.1276)

No passes found over London.
CZ-4B R/B